Guanajuato International Airport
MMLO : rendu visible

Aérodrome :











RETROUVEZ-NOUS SUR...

 
LOGIN :

S'inscrire | Disclaimer

   EN    FR    IT 

 









Légende :    VFR   VFR Marginal   IFR   IFR Intensif   IFR Très Intensif
Visi : 
Plafond : 
>= 8 km
>= 3000ft
5 à 8 km
1000 à 3000 ft
1500m à 5 km
500 à 1000 ft
800 à 1500m
200 à 500 ft
< 800m
< 200 ft
Symboles :   Orages  Brouillard  Fortes neiges  Fortes précipitations  Vent > 20 kt






- Altitude de l'aérodrome : 5956 ft
- Code IATA : BJX


MMLO - Guanajuato International

DERNIER METAR :
  • 270041Z 27007KT 10SM SKC 30/M04 A3011

METARs EXPIRÉS :
  • 262345Z 00000KT 10SM SKC 31/M01 A3010 RMK SLP039 57004 910
  • 262242Z 20005KT 10SM SKC 31/00 A3009

TAF TAF MMLO
Valide du 26 à 18h jusqu'au 27 à 18h UTC


261638Z 2618/2718 21005KT P6SM SKC
BECMG 2620/2621 21010KT SCT030
FM270100 01005KT P6SM SKC
BECMG 2705/2706 00000KT
FM271200 14005KT 6SM HZ SKC
FIR MMFR / Amérique du Nord



MET'MAP, la Météo Aéronautique d'un coup d'oeil ! - Copyright ORBIFLY Décembre 2007 - Disclaimer

ORBIFLY MET'MAP TEAM :

Programmation & Développement : Alexandra Zaïnal
Sur une idée originale de : Baudouin d'Aumeries
Assistance à la programmation : Marc-Olivier Méhu
Soutien technique & logistique : Manuel Goepfert

Contact : metmap@orbifly.com




SOURCES & CREDITS :

   NOAA       Earth
Advisory